This is the latest recevied weather packets stored in our database for station/object AD0YN. If no packets are shown the sender has not sent any weather packets the latest 10 day(s).
| Time | Temp. | Humidity | Pressure | Rain* | Wind** | Luminosity | Snow |
|---|---|---|---|---|---|---|---|
| 1777679701 | 17.22° C | 26% | 1015.1 hPa | 0 mm | - | 106 W/m² | - |
| 1777679395 | 16.67° C | 27% | 1015 hPa | 0 mm | - | 126 W/m² | - |
| 1777679092 | 16.67° C | 25% | 1014.9 hPa | 0 mm | - | 141 W/m² | - |
| 1777678791 | 17.22° C | 25% | 1015.2 hPa | 0 mm | - | 152 W/m² | - |
| 1777678489 | 17.78° C | 26% | 1015 hPa | 0 mm | - | 176 W/m² | - |
| 1777678184 | 17.78° C | 27% | 1015 hPa | 0 mm | - | 199 W/m² | - |
| 1777677881 | 17.78° C | 26% | 1014.7 hPa | 0 mm | - | 217 W/m² | - |
| 1777677578 | 17.22° C | 27% | 1014.7 hPa | 0 mm | - | 222 W/m² | - |
| 1777677277 | 17.22° C | 25% | 1015.1 hPa | 0 mm | - | 235 W/m² | - |
| 1777676975 | 17.22° C | 26% | 1015.1 hPa | 0 mm | - | 256 W/m² | - |
| 1777676674 | 17.78° C | 26% | 1014.9 hPa | 0 mm | - | 80 W/m² | - |
| 1777676370 | 17.78° C | 26% | 1015 hPa | 0 mm | - | 291 W/m² | - |
| 1777676068 | 17.22° C | 28% | 1015.1 hPa | 0 mm | - | 301 W/m² | - |
| 1777675764 | 17.78° C | 28% | 1015 hPa | 0 mm | - | 170 W/m² | - |
| 1777675461 | 16.67° C | 28% | 1015 hPa | 0 mm | - | 366 W/m² | - |
| 1777675158 | 16.67° C | 28% | 1015.2 hPa | 0 mm | - | 105 W/m² | - |
| 1777674854 | 16.67° C | 30% | 1015.1 hPa | 0 mm | - | 108 W/m² | - |
| 1777674550 | 17.22° C | 29% | 1015.2 hPa | 0 mm | - | 101 W/m² | - |
| 1777674249 | 17.78° C | 27% | 1015.1 hPa | 0 mm | - | 115 W/m² | - |
| 1777673944 | 17.78° C | 30% | 1015.1 hPa | 0 mm | - | 454 W/m² | - |
| 1777673641 | 17.78° C | 29% | 1015.1 hPa | 0 mm | - | 495 W/m² | - |
| 1777673339 | 17.22° C | 31% | 1015.2 hPa | 0 mm | - | 535 W/m² | - |
| 1777673036 | 16.67° C | 32% | 1015 hPa | 0 mm | - | 155 W/m² | - |
| 1777672732 | 16.67° C | 35% | 1015.1 hPa | 0 mm | - | 147 W/m² | - |
| 1777672429 | 16.67° C | 31% | 1015.4 hPa | 0 mm | - | 144 W/m² | - |
* Rain latest hour (hover to see other rain measurements)
** Current wind speed in m/s (hover to see current wind gust speed)